www.pogodaiklimat.ru

Погода и климат >> Архив погоды >> Киргизия >> Бишкек


АРХИВ ПОГОДЫ в Бишкеке

Время (UTC), дата Ветер
(напр.,м/с)
 
Видим.   Явления Облачность Т
(С)
Тd
(С)
f
(%)
Тe
(С)
Тes
(С)
Комфортность P
(гПа)
Po
(гПа)
Тmin
(С)
Tmax
(С)
R
(мм)
R24
(мм)
S
(см)
06 22.04 ЮЗ 2 10 км {ливн. осадки} 10/8 600 м
[Cb cap Ac trans]
+15.0 +6.1 55 +15 +16 по сезону 1020.6 934.2 5
09 22.04 ЮЗ 2 10 км 9/5 600 м
[Cb cap Ac trans]
+17.2 +5.1 45 +18 +21 по сезону 1019.8 934.1
12 22.04 ЮЗ 4 10 км слабый ливневой дождь 10/10 600 м
[Cb cap]
+12.7 +9.3 80 +11 +11 очень
холодно
1022.3 935.2
15 22.04 З 2 н/о слабый ливневой дождь 10/10 600 м
[Cb cap]
+13.9 +6.4 61 +14 +14 по сезону 1023.3 936.4 +18.0
18 22.04 Ю 1 н/о {ливн. осадки} 6/0
[Ac trans]
+11.9 +7.6 75 +12 +12 по сезону 1025.2 937.5 +18.0 5
21 22.04 В 1 н/о 3/0
[Ac trans]
+10.1 +6.7 79 +10 +10 по сезону 1024.7 936.5
00 23.04 Ю 2 н/о 3/0
[Ac trans]
+9.3 +5.1 75 +8 +8 по сезону 1024.4 936.0
03 23.04 В 1 20 км ясно +14.6 +7.1 61 +15 +22 тепло 1022.8 936.1
06 23.04 В 1 20 км 1/0
[Ac trans]
+19.1 +4.8 39 +21 +38 комфорт 1021.0 935.7 0.6
09 23.04 З 1 20 км 3/0 1000 м
[Ci fib]
+20.6 +5.1 36 +22 +37 комфорт 1020.5 935.6
12 23.04 З 1 20 км 6/0 1000 м
[Ci fib]
+21.3 +4.0 32 +22 +24 комфорт 1020.5 935.8
15 23.04 Ю 1 н/о 6/0
[Ac trans Ci fib]
+17.1 +6.1 48 +18 +18 тепло 1022.6 936.6 +21.9
18 23.04 Ю 1 н/о 3/0
[Ci fib]
+14.4 +6.1 57 +15 +15 тепло 1022.6 935.8 +21.9
21 23.04 штиль 0 н/о ясно +10.0 +6.5 79 +9 +9 по сезону 1023.1 935.1
00 24.04 Ю 1 н/о ясно +11.9 +5.6 65 +12 +12 тепло 1022.6 935.1
03 24.04 СВ 1 20 км ясно +17.4 +4.3 42 +18 +25 тепло 1021.1 935.3
06 24.04 С 2 20 км ясно +21.4 +3.8 31 +22 +38 комфорт 1018.9 934.4
09 24.04 СЗ 2 20 км ясно +22.4 +1.3 25 +22 +36 комфорт 1018.0 933.8
12 24.04 С 2 20 км ясно +22.6 +5.8 34 +23 +26 комфорт 1016.9 932.9
15 24.04 штиль 0 н/о ясно +17.8 +6.5 47 +18 +18 тепло 1020.1 932.5 +24.0
18 24.04 Ю 1 н/о 3/0
[Ci fib]
+14.5 +7.7 64 +15 +15 тепло 1018.3 932.0 +24.0
21 24.04 штиль 0 н/о ясно +12.5 +4.1 57 +12 +12 по сезону 1017.5 930.6
00 25.04 Ю 1 н/о ясно +9.3 +1.5 58 +9 +9 по сезону 1017.9 930.0
03 25.04 С 1 20 км ясно +16.6 +2.9 40 +18 +25 тепло 1015.6 930.0
06 25.04 В 2 20 км ясно +26.5 +2.7 21 +25 +41 комфорт 1011.4 928.8
09 25.04 СВ 2 20 км ясно +28.8 0.0 15 +26 +40 жарко 1009.7 927.8
12 25.04 С 1 20 км ясно +27.7 +2.9 20 +26 +29 жарко 1009.3 927.3
15 25.04 ЮЗ 1 н/о ясно +20.9 +9.8 49 +24 +24 комфорт 1011.7 927.7 +30.2
18 25.04 Ю 1 н/о ясно +18.4 +6.4 45 +20 +20 тепло 1013.1 928.3 +30.2
21 25.04 штиль 0 н/о ясно +13.3 +7.1 66 +13 +13 тепло 1014.6 928.3
00 26.04 штиль 0 н/о ясно +11.9 +6.4 69 +12 +12 тепло 1015.0 928.2
03 26.04 СЗ 1 20 км ясно +19.5 +6.8 44 +21 +28 комфорт 1013.4 928.9
06 26.04 С 1 20 км ясно +24.8 +7.4 33 +25 +44 комфорт 1011.9 928.9
09 26.04 З 1 20 км ясно +26.8 +3.6 22 +25 +42 комфорт 1011.4 928.9
12 26.04 З 1 20 км ясно +27.1 +2.9 21 +26 +29 жарко 1011.4 929.0
15 26.04 ЮЗ 1 н/о ясно +22.2 +10.9 49 +24 +24 комфорт 1014.0 930.3 +28.0
18 26.04 Ю 1 н/о ясно +18.2 +9.7 58 +20 +20 тепло 1015.8 930.8 +28.0
21 26.04 штиль 0 н/о ясно +17.5 +9.5 59 +18 +18 тепло 1016.4 931.2
00 27.04 З 6 н/о 4/0
[Ac trans]
+15.2 +8.9 66 +14 +14 тепло 1019.9 933.6
03 27.04 СЗ 1 20 км 3/0
[Ac trans]
+16.3 +8.2 59 +17 +23 тепло 1021.1 935.1
06 27.04 З 1 20 км 3/0
[Ac trans]
+19.2 +9.8 54 +21 +37 комфорт 1019.7 934.6
09 27.04 З 2 20 км 3/3 1000 м
[Cu hum]
+20.6 +9.4 49 +23 +33 комфорт 1018.9 934.3
12 27.04 З 5 10 км 10/8 600 м
[Cb cap Ac trans]
+18.8 +8.1 50 +19 +19 по сезону 1020.8 935.5
15 27.04 З 5 н/о слабый ливневой дождь 10/6 600 м
[Cb cap Ac trans]
+15.9 +4.6 47 +15 +15 по сезону 1024.2 937.7 +21.5
18 27.04 З 2 н/о {ливн. осадки} 10/5 600 м
[Cb cap Ac trans]
+11.9 +6.4 69 +11 +11 по сезону 1027.6 939.7 +21.5 0.0
21 27.04 СЗ 1 н/о {ливн. осадки} 10/8 600 м
[Cb cap Ac trans]
+9.7 +6.7 82 +9 +9 по сезону 1026.7 938.3
00 28.04 З 1 н/о ливневой дождь 10/10 600 м
[Cb cap]
+8.3 +7.3 93 +7 +7 по сезону 1027.1 938.3
03 28.04 СЗ 2 4000 м ливневой дождь 10/10 600 м
[Frnb Ns]
+7.5 +7.3 99 +5 +5 очень
холодно
1028.1 938.9
06 28.04 СЗ 2 10 км слабый ливневой дождь 10/10 600 м
[Cb cap]
+6.3 +5.6 95 +4 +4 очень
холодно
1030.5 940.6 8
09 28.04 СЗ 2 10 км слабый ливневой дождь 10/10 600 м
[Cb cap]
+6.3 +5.2 93 +4 +4 очень
холодно
1031.3 941.4
12 28.04 СЗ 1 20 км {ливн. осадки} 10/5 600 м
[Cb cap Ac trans]
+6.2 +2.8 79 +5 +6 очень
холодно
1032.5 942.4
15 28.04 С 1 н/о 10/4 600 м
[Cb cap Ac trans]
+6.4 +3.0 79 +5 +5 очень
холодно
1034.0 943.9 +8.2
18 28.04 СЗ 1 н/о 10/6 600 м
[Cb cap Ac und]
+5.7 +3.6 86 +5 +5 очень
холодно
1035.2 944.7 +8.2 10
21 28.04 Ю 2 н/о 6/6 600 м
[Cb cap]
+4.5 -0.3 71 +2 +2 очень
холодно
1034.1 943.3
00 29.04 штиль 0 н/о ясно +2.8 -0.5 79 +2 +2 очень
холодно
1033.1 941.9
03 29.04 ЮВ 1 20 км ясно +8.1 -2.5 47 +8 +15 холодно 1030.4 941.0

 

Местоположение метеостанции Бишкек (город Бишкек, Киргизия): широта 42.85 долгота 74.53 высота над уровнем моря 760 м.

В архиве по умолчанию представлена погода в Бишкеке за последнюю неделю. Архивные данные за месяц целиком и за предыдущие месяцы, начиная с января 2011 года, Вы можете получить, выбрав интересующий диапазон дат из раскрывающегося списка и нажав кнопку "Ввод!".

Внимание! Время в таблицах - всемирное. Для получения местного времени необходимо прибавить поправку, которая в Бишкеке равна 6 ч.

Смотрите также архив погоды в соседних городах и на ближайших метеорологических станциях:

Погода в Байтике (Чуйская область, Киргизия) (22 км)
Погода в Иссык-Ате (город Бишкек, Киргизия) (28 км)
Погода в Яны-Жере (Чуйская область, Киргизия) (46 км)
Погода в Бериктасе (Жамбылская область, Казахстан) (49 км)
Погода в Кара-Балте (Чуйская область, Киргизия) (58 км)
Погода в Тео-Ашуу (Чуйская область, Киргизия) (58 км)
Погода в Токмоке (Чуйская область, Киргизия) (61 км)
Погода в Кордае (Жамбылская область, Казахстан) (66 км)
Погода в Сусамыре (Чуйская область, Киргизия) (90 км)
Погода в Отаре (Жамбылская область, Казахстан) (96 км)

Пояснения к столбцам:

Ветер - указаны скорость ветра в м/с - средняя за 10 мин, порывы в срок и между сроками (в фигурных скобках) и направление, откуда дует ветер: С - северный, СВ - северо-восточный, В - восточный, ЮВ - юго-восточный, Ю - южный, ЮЗ - юго-западный, З - западный, СЗ - северо-западный.
Видимость - горизонтальная дальность видимости в метрах или километрах. При видимости от 1 до 10 км при отсутствии осадков обычно наблюдается дымка, при ухудшении видимости до 1 км и менее - туман. В сухую погоду видимость может ухудшаться дымом, пылью или мглою.
Явления - указаны атмосферные явления, наблюдавшиеся в срок или в последний час перед сроком; фигурными скобками обозначены явления, наблюдавшиеся между сроками (за 1-3 часа до срока); квадратными скобками обозначены град или гололедные отложения с указанием их диаметра в мм.
Облачность - указаны через наклонную черту общая и нижняя облачность в баллах и высота нижней границы облаков в метрах; квадратными скобками обозначены формы облаков: Ci - перистые, Cs - перисто-слоистые, Cc - перисто-кучевые, Ac - высококучевые, As - высокослоистые, Sc - слоисто-кучевые, Ns - слоисто-дождевые, Cu - кучевые, Cb - кучево-дождевые. Подробнее классификацию облаков см. в Атласе облаков (PDF).
T - Температура воздуха - температура, измеренная на высоте 2 м над землей.
Td - Температура точки росы - температура, при понижении до которой содержащийся в воздухе водяной пар достигнет насыщения.
f - Относительная влажность воздуха - влажноcть воздуха, измеренная на высоте 2 м над землей.
Te - Эффективная температура - температура, которую ощущает одетый по сезону человек в тени. Характеристика душности погоды. При расчете учитывается влияние влажности воздуха и скорости ветра на теплоощущения человека.
Tes - Эффективная температура на солнце - температура, которую ощущает человек, с поправкой на солнечный нагрев. Характеристика знойности погоды. Зависит от высоты солнца над горизонтом, облачности и скорости ветра. Ночью, в пасмурную погоду, а также при ветре 12 м/с и более поправка равна нулю.
P - Атмосферное давление - приведенное к уровню моря атмосферное давление.
Po - Атмосферное давление - измеренное на уровне метеостанции атмосферное давление.
Tmin - Минимальная температура - минимум температуры воздуха на высоте 2 м над землей.
Tmax - Максимальная температура - максимум температуры воздуха на высоте 2 м над землей.
R - Количество осадков - Количество выпавших осадков за период времени, мм. При наведении курсора мыши на число - период времени, за который выпало указанное количество осадков.
R24 - Количество осадков - Количество выпавших осадков за 24 часа, мм.
S - Снежный покров - Высота снежного покрова, см. При наведении курсора мыши на число - состояние снежного покрова и степень покрытия местности в баллах.